Time,TemperatureF,DewpointF,PressureIn,WindDirection,WindDirectionDegrees,WindSpeedMPH,WindSpeedGustMPH,Humidity,HourlyPrecipIn,Conditions,Clouds,dailyrainin,SoftwareType,DateUTC
2013-02-07 00:00:00,40.8,31.1,28.73,ENE,59,0.0,0.0,68,0.00,,BKN065,0.00,VWS V14.01,2013-02-07 06:00:00,
2013-02-07 00:15:00,41.2,30.7,28.73,ENE,59,0.0,0.0,66,0.00,,BKN041,0.00,VWS V14.01,2013-02-07 06:15:00,
2013-02-07 00:30:00,40.1,29.7,28.73,ENE,59,0.0,0.0,66,0.00,,BKN041,0.00,VWS V14.01,2013-02-07 06:30:00,
2013-02-07 00:45:00,39.6,29.5,28.73,ENE,59,0.0,0.0,67,0.00,,BKN041,0.00,VWS V14.01,2013-02-07 06:45:00,
2013-02-07 01:00:00,39.4,30.1,28.73,ENE,59,8.1,12.1,69,0.00,,BKN041,0.00,VWS V14.01,2013-02-07 07:00:00,
2013-02-07 01:15:00,39.6,30.6,28.73,NE,41,0.0,12.1,70,0.00,,BKN048,0.00,VWS V14.01,2013-02-07 07:15:00,
2013-02-07 01:30:00,39.4,30.4,28.73,ENE,74,0.0,8.1,70,0.00,,BKN048,0.00,VWS V14.01,2013-02-07 07:30:00,
2013-02-07 01:45:00,38.7,30.4,28.73,ENE,60,0.0,13.4,72,0.00,,BKN048,0.00,VWS V14.01,2013-02-07 07:45:00,
2013-02-07 02:00:00,38.3,30.1,28.73,ENE,59,0.0,0.0,72,0.00,,BKN048,0.00,VWS V14.01,2013-02-07 08:00:00,
2013-02-07 02:15:00,38.1,30.2,28.73,NNW,335,9.4,9.4,73,0.00,,OVC048,0.00,VWS V14.01,2013-02-07 08:15:00,
2013-02-07 02:30:00,38.7,31.1,28.73,ENE,69,13.4,15.4,74,0.00,,OVC048,0.00,VWS V14.01,2013-02-07 08:30:00,
2013-02-07 02:45:00,38.5,30.6,28.73,ENE,68,0.0,15.4,73,0.00,,OVC048,0.00,VWS V14.01,2013-02-07 08:45:00,
2013-02-07 03:00:00,38.3,30.4,28.73,ENE,58,8.1,12.1,73,0.00,,OVC048,0.00,VWS V14.01,2013-02-07 09:00:00,
2013-02-07 03:15:00,38.3,30.8,28.73,NE,56,8.1,12.1,74,0.00,,BKN150,0.00,VWS V14.01,2013-02-07 09:15:00,
2013-02-07 03:30:00,38.1,31.2,28.73,NE,40,0.0,18.1,76,0.00,,BKN150,0.00,VWS V14.01,2013-02-07 09:30:00,
2013-02-07 03:45:00,38.1,30.9,28.73,ESE,122,12.1,15.4,75,0.00,,BKN150,0.00,VWS V14.01,2013-02-07 09:45:00,
2013-02-07 04:00:00,37.6,29.4,28.73,East,99,8.1,20.8,72,0.00,,BKN150,0.00,VWS V14.01,2013-02-07 10:00:00,
2013-02-07 04:15:00,37.2,28.7,28.73,NE,44,10.7,24.8,71,0.00,,BKN150,0.00,VWS V14.01,2013-02-07 10:15:00,
2013-02-07 04:30:00,37.6,28.4,28.73,NE,56,10.7,23.5,69,0.00,,BKN150,0.00,VWS V14.01,2013-02-07 10:30:00,
2013-02-07 04:45:00,37.6,27.6,28.76,NE,49,13.4,28.2,67,0.00,,BKN150,0.00,VWS V14.01,2013-02-07 10:45:00,
2013-02-07 05:00:00,37.6,26.9,28.76,ENE,72,15.4,29.5,65,0.00,,BKN150,0.00,VWS V14.01,2013-02-07 11:00:00,
2013-02-07 05:15:00,36.7,26.4,28.76,NNE,28,19.5,20.8,66,0.00,,OVC042,0.00,VWS V14.01,2013-02-07 11:15:00,
2013-02-07 05:30:00,36.0,26.4,28.76,NE,55,15.4,22.1,68,0.00,,OVC042,0.00,VWS V14.01,2013-02-07 11:30:00,
2013-02-07 05:45:00,35.8,27.0,28.79,ENE,61,24.8,26.2,70,0.00,,OVC042,0.00,VWS V14.01,2013-02-07 11:45:00,
2013-02-07 06:00:00,35.6,27.1,28.79,East,86,19.5,29.5,71,0.00,,OVC042,0.00,VWS V14.01,2013-02-07 12:00:00,
2013-02-07 06:15:00,35.4,27.3,28.79,NNE,26,0.0,23.5,72,0.00,,OVC150,0.00,VWS V14.01,2013-02-07 12:15:00,
2013-02-07 06:30:00,35.4,27.6,28.79,ENE,65,8.1,23.5,73,0.00,,OVC150,0.00,VWS V14.01,2013-02-07 12:30:00,
2013-02-07 06:45:00,35.2,27.8,28.79,NNE,32,20.8,28.2,74,0.00,,OVC150,0.00,VWS V14.01,2013-02-07 12:45:00,
2013-02-07 07:00:00,34.9,27.8,28.79,NE,48,18.1,29.5,75,0.00,,OVC150,0.00,VWS V14.01,2013-02-07 13:00:00,
2013-02-07 07:15:00,34.7,27.9,28.79,NE,40,9.4,29.5,76,0.00,,OVC150,0.00,VWS V14.01,2013-02-07 13:15:00,
2013-02-07 07:30:00,34.5,28.4,28.82,NNE,27,18.1,32.2,78,0.00,,OVC150,0.00,VWS V14.01,2013-02-07 13:30:00,
2013-02-07 07:45:00,34.3,28.5,28.82,NE,44,8.1,30.9,79,0.00,,OVC150,0.00,VWS V14.01,2013-02-07 13:45:00,
2013-02-07 08:00:00,34.0,28.2,28.82,NNE,32,24.8,33.6,79,0.00,,OVC150,0.00,VWS V14.01,2013-02-07 14:00:00,
2013-02-07 08:15:00,34.0,28.5,28.85,ENE,58,12.1,37.6,80,0.00,,OVC150,0.00,VWS V14.01,2013-02-07 14:15:00,
2013-02-07 08:30:00,34.0,28.8,28.85,ENE,76,26.8,40.9,81,0.00,,OVC150,0.00,VWS V14.01,2013-02-07 14:30:00,
2013-02-07 08:45:00,33.8,28.6,28.88,East,87,22.1,34.9,81,0.00,,OVC150,0.00,VWS V14.01,2013-02-07 14:45:00,
2013-02-07 09:00:00,34.0,28.8,28.88,ENE,70,20.8,38.9,81,0.00,,OVC150,0.00,VWS V14.01,2013-02-07 15:00:00,
2013-02-07 09:15:00,33.8,28.3,28.88,ENE,62,19.5,33.6,80,0.00,,,0.00,VWS V14.01,2013-02-07 15:15:00,
2013-02-07 09:30:00,33.4,27.6,28.88,ESE,118,22.1,34.9,79,0.00,,,0.00,VWS V14.01,2013-02-07 15:30:00,
2013-02-07 09:45:00,33.6,27.8,28.88,ESE,110,14.1,36.2,79,0.00,,,0.00,VWS V14.01,2013-02-07 15:45:00,
2013-02-07 10:00:00,34.0,27.5,28.88,ENE,62,33.6,39.6,77,0.00,,,0.00,VWS V14.01,2013-02-07 16:00:00,
2013-02-07 10:15:00,34.3,27.2,28.88,ENE,58,18.1,40.9,75,0.00,,,0.00,VWS V14.01,2013-02-07 16:15:00,
2013-02-07 10:30:00,34.5,27.1,28.91,NE,44,18.1,40.9,74,0.00,,,0.00,VWS V14.01,2013-02-07 16:30:00,
2013-02-07 10:45:00,34.0,26.9,28.91,NNE,26,14.1,34.9,75,0.00,,,0.00,VWS V14.01,2013-02-07 16:45:00,
2013-02-07 11:00:00,33.4,27.3,28.91,West,281,12.1,38.9,78,0.00,,,0.00,VWS V14.01,2013-02-07 17:00:00,
2013-02-07 11:15:00,33.6,28.1,28.91,ENE,66,16.8,34.9,80,0.00,,,0.00,VWS V14.01,2013-02-07 17:15:00,
2013-02-07 11:30:00,33.6,27.5,28.91,ENE,61,12.1,30.9,78,0.00,,,0.00,VWS V14.01,2013-02-07 17:30:00,
2013-02-07 11:45:00,34.0,27.2,28.91,NE,54,16.8,34.9,76,0.00,,,0.00,VWS V14.01,2013-02-07 17:45:00,
2013-02-07 12:00:00,33.8,26.1,28.91,ENE,74,16.8,30.9,73,0.00,,,0.00,VWS V14.01,2013-02-07 18:00:00,
2013-02-07 12:15:00,33.8,26.1,28.91,North,357,16.8,28.2,73,0.00,,,0.00,VWS V14.01,2013-02-07 18:15:00,
2013-02-07 12:30:00,33.4,25.1,28.91,ENE,59,9.4,28.2,71,0.00,,,0.00,VWS V14.01,2013-02-07 18:30:00,
2013-02-07 12:45:00,33.3,24.9,28.91,ENE,76,26.8,32.2,71,0.00,,,0.00,VWS V14.01,2013-02-07 18:45:00,
2013-02-07 13:00:00,33.4,25.1,28.91,ENE,77,29.5,40.9,71,0.00,,,0.00,VWS V14.01,2013-02-07 19:00:00,
2013-02-07 13:15:00,33.6,24.5,28.91,NE,56,23.5,34.9,69,0.00,,,0.00,VWS V14.01,2013-02-07 19:15:00,
2013-02-07 13:30:00,33.4,24.0,28.91,ESE,120,9.4,36.2,68,0.00,,,0.00,VWS V14.01,2013-02-07 19:30:00,
2013-02-07 13:45:00,32.9,23.2,28.91,NE,36,24.8,34.9,67,0.00,,,0.00,VWS V14.01,2013-02-07 19:45:00,
2013-02-07 14:00:00,32.9,23.2,28.91,ENE,67,16.8,34.9,67,0.00,,,0.00,VWS V14.01,2013-02-07 20:00:00,
2013-02-07 14:15:00,33.3,23.5,28.91,East,83,13.4,37.6,67,0.00,,,0.00,VWS V14.01,2013-02-07 20:15:00,
2013-02-07 14:30:00,33.4,23.7,28.91,NE,50,14.1,38.9,67,0.00,,,0.00,VWS V14.01,2013-02-07 20:30:00,
2013-02-07 14:45:00,32.9,22.4,28.94,NE,37,10.7,38.9,65,0.00,,,0.00,VWS V14.01,2013-02-07 20:45:00,
2013-02-07 15:00:00,33.1,22.6,28.91,ENE,69,19.5,30.9,65,0.00,,,0.00,VWS V14.01,2013-02-07 21:00:00,
2013-02-07 15:15:00,33.1,22.2,28.94,ENE,70,24.8,38.9,64,0.00,,,0.00,VWS V14.01,2013-02-07 21:15:00,
2013-02-07 15:30:00,33.1,21.9,28.94,East,101,28.2,32.2,63,0.00,,,0.00,VWS V14.01,2013-02-07 21:30:00,
2013-02-07 15:45:00,33.3,21.7,28.94,ENE,68,16.8,32.2,62,0.00,,,0.00,VWS V14.01,2013-02-07 21:45:00,
2013-02-07 16:00:00,33.1,21.5,28.94,East,84,19.5,26.2,62,0.00,,,0.00,VWS V14.01,2013-02-07 22:00:00,
2013-02-07 16:15:00,33.1,21.5,28.94,ENE,62,12.1,34.9,62,0.00,,,0.00,VWS V14.01,2013-02-07 22:15:00,
2013-02-07 16:30:00,32.7,21.1,28.94,NE,45,16.8,33.6,62,0.00,,,0.00,VWS V14.01,2013-02-07 22:30:00,
2013-02-07 16:45:00,32.4,20.8,28.97,East,99,14.1,32.2,62,0.00,,,0.00,VWS V14.01,2013-02-07 22:45:00,
2013-02-07 17:00:00,32.2,20.6,28.97,East,80,14.1,36.2,62,0.00,,,0.00,VWS V14.01,2013-02-07 23:00:00,
2013-02-07 17:15:00,32.0,20.5,28.97,East,93,18.1,32.2,62,0.00,,,0.00,VWS V14.01,2013-02-07 23:15:00,
2013-02-07 17:30:00,31.6,19.8,28.97,ENE,60,18.1,38.9,61,0.00,,,0.00,VWS V14.01,2013-02-07 23:30:00,
2013-02-07 17:45:00,31.5,19.6,28.97,East,81,23.5,34.9,61,0.00,,,0.00,VWS V14.01,2013-02-07 23:45:00,
2013-02-07 18:00:00,31.5,20.0,29.00,East,79,22.1,34.9,62,0.00,,,0.00,VWS V14.01,2013-02-08 00:00:00,
2013-02-07 18:15:00,31.1,19.2,29.00,East,83,18.1,29.5,61,0.00,,OVC020,0.00,VWS V14.01,2013-02-08 00:15:00,
2013-02-07 18:30:00,31.1,19.2,29.00,NE,55,15.4,30.9,61,0.00,,OVC020,0.00,VWS V14.01,2013-02-08 00:30:00,
2013-02-07 18:45:00,31.1,19.2,29.00,ESE,123,12.1,26.2,61,0.00,,OVC020,0.00,VWS V14.01,2013-02-08 00:45:00,
2013-02-07 19:00:00,31.1,19.2,29.00,NE,53,8.1,29.5,61,0.00,,OVC020,0.00,VWS V14.01,2013-02-08 01:00:00,
2013-02-07 19:15:00,31.1,19.6,29.03,NNE,21,19.5,30.9,62,0.00,,OVC020,0.00,VWS V14.01,2013-02-08 01:15:00,
2013-02-07 19:30:00,31.1,19.6,29.03,NE,56,22.1,34.9,62,0.00,,OVC020,0.00,VWS V14.01,2013-02-08 01:30:00,
2013-02-07 19:45:00,31.1,19.6,29.03,ENE,70,20.8,32.2,62,0.00,,OVC020,0.00,VWS V14.01,2013-02-08 01:45:00,
2013-02-07 20:00:00,31.1,20.0,29.03,ENE,74,19.5,26.8,63,0.00,,OVC020,0.00,VWS V14.01,2013-02-08 02:00:00,
2013-02-07 20:15:00,30.9,19.8,29.03,NE,56,24.8,29.5,63,0.00,,OVC018,0.00,VWS V14.01,2013-02-08 02:15:00,
2013-02-07 20:30:00,30.7,19.3,29.03,ENE,68,15.4,32.2,62,0.00,,OVC018,0.00,VWS V14.01,2013-02-08 02:30:00,
2013-02-07 20:45:00,30.6,18.7,29.06,NNE,14,19.5,32.2,61,0.00,,OVC018,0.00,VWS V14.01,2013-02-08 02:45:00,
2013-02-07 21:00:00,30.4,18.9,29.06,ENE,71,20.8,26.2,62,0.00,,OVC018,0.00,VWS V14.01,2013-02-08 03:00:00,
2013-02-07 21:15:00,30.2,18.4,29.06,ENE,72,18.1,30.9,61,0.00,,OVC018,0.00,VWS V14.01,2013-02-08 03:15:00,
2013-02-07 21:30:00,30.2,18.4,29.06,NNE,26,22.1,30.9,61,0.00,,OVC018,0.00,VWS V14.01,2013-02-08 03:30:00,
2013-02-07 21:45:00,30.0,18.6,29.06,NNE,21,9.4,26.8,62,0.00,,OVC018,0.00,VWS V14.01,2013-02-08 03:45:00,
2013-02-07 22:00:00,29.8,18.4,29.06,East,97,8.1,29.5,62,0.00,,OVC018,0.00,VWS V14.01,2013-02-08 04:00:00,
2013-02-07 22:15:00,29.8,18.4,29.06,ENE,77,13.4,24.8,62,0.00,,OVC020,0.00,VWS V14.01,2013-02-08 04:15:00,
2013-02-07 22:30:00,29.8,17.3,29.06,ENE,57,20.8,26.2,59,0.00,,OVC020,0.00,VWS V14.01,2013-02-08 04:30:00,
2013-02-07 22:45:00,29.8,17.3,29.06,ESE,111,12.1,26.2,59,0.00,,OVC020,0.00,VWS V14.01,2013-02-08 04:45:00,
2013-02-07 23:00:00,29.8,17.3,29.06,NE,41,0.0,26.8,59,0.00,,OVC020,0.00,VWS V14.01,2013-02-08 05:00:00,
2013-02-07 23:15:00,29.8,17.3,29.06,NE,34,9.4,16.8,59,0.00,,OVC022,0.00,VWS V14.01,2013-02-08 05:15:00,
2013-02-07 23:30:00,29.8,17.3,29.06,NE,50,12.1,18.1,59,0.00,,OVC022,0.00,VWS V14.01,2013-02-08 05:30:00,
2013-02-07 23:45:00,29.1,17.0,29.06,NNE,16,0.0,16.8,60,0.00,,OVC022,0.00,VWS V14.01,2013-02-08 05:45:00,